Weather History for Huntington, WV

Change the Weather History Date:

Tuesday, January 8, 2013

  Actual Average Record
Temperature  
Mean Temperature 37 °F 34 °F  
Max Temperature 53 °F 42 °F 74 °F (1937)
Min Temperature 21 °F 25 °F -10 °F (1942)
Degree Days  
Heating Degree Days 28 31  
Month to date heating degree days 250 248  
Since 1 July heating degree days 1992 2003  
Cooling Degree Days 0 0  
Month to date cooling degree days 0 0  
Year to date cooling degree days 0 0  
Moisture  
Dew Point 24 °F    
Average Humidity 65    
Maximum Humidity 92    
Minimum Humidity 38    
Precipitation  
Precipitation 0.00 in 0.10 in 2.04 in (1953)
Month to date precipitation 0.14 0.77  
Year to date precipitation 0.14 0.77  
Snow  
Snow 0.00 in - - ()
Month to date snowfall T  
Since 1 September snowfall 3.5  
Snow Depth 0.00 in    
Sea Level Pressure  
Sea Level Pressure 30.33 in    
Wind  
Wind Speed 3 mph (SE)    
Max Wind Speed 12 mph    
Max Gust Speed 16 mph    
Visibility 9 miles    
Events      
T = Trace of Precipitation, MM = Missing Value Source: NWS Daily Summary

Daily Weather History Graph

Daily Weather History Graph

Search for Another Location

Airport:

Trip Planner

Search our weather history database for the weather conditions in past years. The results will help you decide how hot, cold, wet, or windy it might be!

Date:

Astronomy

Jan. 08, 2013 Rise Set
Actual Time 7:47 AM EST 5:26 PM EST
Civil Twilight 7:18 AM EST 5:56 PM EST
Nautical Twilight 6:45 AM EST 6:29 PM EST
Astronomical Twilight 6:13 AM EST 7:01 PM EST
Moon 4:19 AM EST (1/8) 2:28 PM EST (1/8)
Length of Visible Light 10h 38m
Length of Day
9h 39m
Waning Crescent, 14% of the Moon is Illuminated
Jan 8
Waning Crescent
Jan 11
New
Jan 18
First Quarter
Jan 26
Full
Feb 3
Last Quarter

Hourly Weather History & Observations

Time (EST) Temp. Windchill Dew Point Humidity Pressure Visibility Wind Dir Wind Speed Gust Speed Precip Events Conditions
12:51 AM 27.0 °F - 21.9 °F 81% 30.29 in 9.0 mi Calm Calm - N/A   Clear
1:51 AM 25.0 °F 20.7 °F 21.0 °F 85% 30.29 in 8.0 mi ESE 3.5 mph - N/A   Clear
2:51 AM 24.1 °F - 21.0 °F 88% 30.29 in 7.0 mi Calm Calm - N/A   Clear
3:51 AM 23.0 °F - 19.9 °F 88% 30.30 in 8.0 mi Calm Calm - N/A   Clear
4:51 AM 26.1 °F - 21.0 °F 81% 30.32 in 8.0 mi Calm Calm - N/A   Clear
5:51 AM 21.9 °F - 19.0 °F 89% 30.33 in 7.0 mi Calm Calm - N/A   Clear
6:51 AM 23.0 °F 18.4 °F 19.9 °F 88% 30.35 in 8.0 mi East 3.5 mph - N/A   Clear
7:51 AM 23.0 °F 17.0 °F 19.0 °F 85% 30.38 in 7.0 mi East 4.6 mph - N/A   Clear
8:51 AM 27.0 °F - 23.0 °F 85% 30.40 in 8.0 mi Calm Calm - N/A   Clear
9:51 AM 34.0 °F - 27.0 °F 75% 30.41 in 10.0 mi Calm Calm - N/A   Clear
11:51 AM 44.1 °F 39.5 °F 27.0 °F 51% 30.38 in 10.0 mi SSW 8.1 mph - N/A   Clear
12:51 PM 46.9 °F - 27.0 °F 46% 30.35 in 10.0 mi SSW 5.8 mph - N/A   Clear
1:51 PM 51.1 °F - 27.0 °F 39% 30.32 in 10.0 mi Variable 4.6 mph - N/A   Clear
2:51 PM 51.1 °F - 26.1 °F 38% 30.32 in 10.0 mi South 6.9 mph - N/A   Clear
3:51 PM 52.0 °F - 26.1 °F 37% 30.31 in 10.0 mi South 6.9 mph - N/A   Clear
4:51 PM 51.1 °F - 26.1 °F 38% 30.30 in 10.0 mi SSE 3.5 mph - N/A   Clear
5:51 PM 48.9 °F - 26.1 °F 41% 30.30 in 10.0 mi SE 3.5 mph - N/A   Clear
6:51 PM 46.0 °F 43.9 °F 26.1 °F 46% 30.30 in 10.0 mi East 4.6 mph - N/A   Clear
7:51 PM 41.0 °F 38.0 °F 26.1 °F 55% 30.31 in 10.0 mi East 4.6 mph - N/A   Clear
8:51 PM 39.0 °F - 27.0 °F 62% 30.31 in 10.0 mi Calm Calm - N/A   Clear
9:51 PM 36.0 °F - 27.0 °F 70% 30.30 in 10.0 mi Calm Calm - N/A   Clear
10:51 PM 33.1 °F - 27.0 °F 78% 30.29 in 10.0 mi Calm Calm - N/A   Clear
11:51 PM 33.1 °F - 27.0 °F 78% 30.29 in 10.0 mi Calm Calm - N/A   Clear